Location: Gravenhurst
(44.9196°N, 79.3742°W)
Time: 17:48:05
(UTC-05:00)

Envisat - Pass Details

Date: 28 October 2019
Orbit: 764 x 766 km, 98.1° (Epoch: 14 November)

Event Time Altitude Azimuth Distance (km) Brightness Sun altitude
Rises 20:12:37 0° 196° (SSW) 3,218 6.4 -21.9°
Reaches altitude 10° 20:15:13 10° 208° (SSW) 2,297 5.7 -22.4°
Maximum altitude 20:19:31 27° 266° (W) 1,427 5.1 -23.1°
Drops below altitude 10° 20:23:50 10° 324° (NW) 2,311 6.0 -23.9°
Sets 20:26:29 0° 336° (NNW) 3,242 6.6 -24.4°
